Regional Weather Roundup
Issued by NWS

Home | Current Version | Previous Version | Text Only | Print | Product List | Glossary On
Versions: 1 2 3 4 5 6 7 8 9 10 11 12 13 14 15 16 17 18 19 20 21 22 23 24 25 26 27 28 29 30 31 32 33 34 35 36 37 38 39 40 41 42 43 44 45 46 47 48 49 50
000
ASUS46 KSEW 211610
RWRWA

WASHINGTON REGIONAL WEATHER ROUNDUP
NATIONAL WEATHER SERVICE SEATTLE WA
800 AM PST FRI NOV 21 2014

NOTE:"FAIR" INDICATES FEW OR NO CLOUDS BELOW 12,000 FEET WITH NO
SIGNIFICANT WEATHER AND/OR OBSTRUCTIONS TO VISIBILITY.

WAZ505-507>509-211700-
SEATTLE, TACOMA, EVERETT, AND VICINITY

CITY           SKY/WX    TMP DP  RH WIND       PRES   REMARKS
EVERETT        LGT RAIN  49  44  83 S13       29.74F
BOEING FIELD   LGT RAIN  50  45  83 SE5       29.74F
RENTON         LGT RAIN  49  45  86 CALM      29.75F
SEATAC AIRPORT CLOUDY    49  43  80 SE7       29.75F
JBLM-MCCHORD   CLOUDY    48  48 100 S7        29.74F
PUYALLUP       NOT AVBL
JBLM-FT LEWIS  DRIZZLE   51  48  89 SE6       29.74F
TACOMA NARROWS CLOUDY    48  45  89 CALM      29.74F
$$

WAZ001-503-506-510-514-515-211700-
NORTH INTERIOR

CITY           SKY/WX    TMP DP  RH WIND       PRES   REMARKS
BELLINGHAM     CLOUDY    54  44  69 SE20G30   29.67F
FRIDAY HARBOR  CLOUDY    50  47  89 SE18G25   29.67F
EASTSOUND      LGT RAIN  50  46  87 S14G21    29.65F
PORT ANGELES   FOG       43  42  97 CALM      29.64F VSB 1
NAS WHIDBEY    LGT RAIN  53  47  79 SE24G39   29.68F
BURLINGTON     CLOUDY    52  46  82 SE12G18   29.71F
$$

WAZ020-022-039-040-504-511-512-211700-
SOUTHWEST INTERIOR

CITY           SKY/WX    TMP DP  RH WIND       PRES   REMARKS
SHELTON        LGT RAIN  46  45  96 CALM      29.71F FOG
OLYMPIA        LGT RAIN  48  44  86 SW6       29.75F
CHEHALIS       CLOUDY    48  45  87 S5        29.76F
KELSO          CLOUDY    45  37  76 SE12G20   29.82F
VANCOUVER      CLOUDY    43  37  79 SE10      29.82F
SCAPPOOSE, OR  CLOUDY    42  39  89 CALM      29.83F
PORTLAND, OR   CLOUDY    43  38  82 E13       29.83F
$$

WAZ021-516-517-211700-
WASHINGTON COAST

CITY           SKY/WX    TMP DP  RH WIND       PRES   REMARKS
FORKS          RAIN      52  51  97 S9G20     29.61F FOG
HOQUIAM        LGT RAIN  49  48  97 E12       29.69F FOG
ASTORIA, OR    LGT RAIN  52  49  89 SE6       29.71F
$$

WAZ019-023-024-040-518-519-211700-
CASCADE MOUNTAINS AND COLUMBIA GORGE

CITY           SKY/WX    TMP DP  RH WIND       PRES   REMARKS
STAMPEDE PASS  NOT AVBL
TROUTDALE, OR  CLOUDY    42  35  76 E18G26    29.83F
THE DALLES, OR CLOUDY    31  28  89 SW3       29.96F FOG
$$

WAZ026-027-041>044-520-521-211700-
EAST SLOPES

CITY           SKY/WX    TMP DP  RH WIND       PRES   REMARKS
OMAK           CLOUDY    32  26  78 S5        29.92S
WENATCHEE      CLOUDY    31  26  82 E3        29.92S HAZE
ELLENSBURG     CLOUDY    30  26  85 CALM      29.88F FOG
YAKIMA         CLOUDY    26  22  84 W5        29.94S FOG
$$

WAZ028-034-035-211700-
COLUMBIA BASIN

CITY           SKY/WX    TMP DP  RH WIND       PRES   REMARKS
EPHRATA        CLOUDY    28  26  92 CALM      29.92S FOG
MOSES LAKE     CLOUDY    28  26  92 CALM      29.94S FOG
PASCO          CLOUDY    32  31  96 E3        29.98F FOG
HERMISTON, OR  FOG       31  29  92 NW3       29.95F VSB 3/4
$$

WAZ036>038-211700-
NORTHEAST WASHINGTON

CITY           SKY/WX    TMP DP  RH WIND       PRES   REMARKS
SPOKANE GEIGER CLOUDY    34  32  92 SE8       29.89F
SPOKANE FELTS  CLOUDY    33  30  88 E3        29.92F FOG
FAIRCHILD AFB  CLOUDY    33  32  98 S7        29.88F
COEURDALENE,ID CLOUDY    34  30  86 CALM      29.90S VSB 1
DEER PARK      CLOUDY    32  31  96 CALM      29.91F FOG
$$

WAZ029>033-211700-
SOUTHEAST WASHINGTON

CITY           SKY/WX    TMP DP  RH WIND       PRES   REMARKS
PULLMAN        CLOUDY    36  32  85 E8        29.94S
LEWISTON, ID   CLOUDY    38  34  85 SE7       29.96S
WALLA WALLA    FOG       31  30  96 CALM      29.92F VSB 1
PENDLETON, OR  CLOUDY    31  29  92 SE9       29.90F FOG
$$


USA.gov is the U.S. government's official web portal to all federal, state and local government web resources and services.